Regional Weather Roundup
Issued by NWS

Home | Current Version | Previous Version | Graphics & Text | Print | Product List | Glossary On
Versions: 1 2 3 4 5 6 7 8 9 10 11 12 13 14 15 16 17 18 19 20 21 22 23 24 25 26 27 28 29 30 31 32 33 34 35 36 37 38 39 40 41 42 43 44 45 46 47 48 49 50
000
ASUS43 KLSX 041407
RWRMO

WEATHER SUMMARY FOR MISSOURI
NATIONAL WEATHER SERVICE SPRINGFIELD MO
900 AM CDT MON MAY 04 2015

NOTE: "FAIR" INDICATES FEW OR NO CLOUDS BELOW 12,000 FEET WITH NO
       SIGNIFICANT WEATHER AND/OR OBSTRUCTIONS TO VISIBILITY.
       CURRENT SKY AND/OR WEATHER CONDITIONS ARE NOT AVAILABLE FOR
       CHILLICOTHE AND FARMINGTON.

MOZ001>031-035>038-043-044-053-054-041500-
...NORTHERN AND WESTERN MISSOURI...

CITY           SKY/WX    TMP DP  RH WIND       PRES   REMARKS
KANSAS CTY INT CLOUDY    66  58  75 S5        30.00S
KANSAS C DTWN  CLOUDY    68  57  68 CALM      29.98F
LEE`S SUMMIT   CLOUDY    66  58  75 SW7       30.02R
ST JOSEPH      CLOUDY    69  57  65 N6        30.03R
CHILLICOTHE      N/A     69  60  73 VRB5      30.05R
KIRKSVILLE     CLOUDY    69  60  73 W8        30.06R

$$
MOZ066>068-077>081-088>096-101>105-041500-
...SOUTHWEST MISSOURI...

CITY           SKY/WX    TMP DP  RH WIND       PRES   REMARKS
SPRINGFIELD    FAIR      70  56  61 S16       30.10R
JOPLIN         PTSUNNY   70  56  61 S16       30.07S

$$
MOZ032>034-039>042-045>050-055>058-069>072-041500-
...CENTRAL MISSOURI...

CITY           SKY/WX    TMP DP  RH WIND       PRES   REMARKS
COLUMBIA       CLOUDY    66  58  75 S8        30.07S
JEFFERSON CITY PTSUNNY   70  58  65 S7        30.08R
ROLLA          MOSUNNY   70  58  65 S13       30.10R
SEDALIA        PTSUNNY   65  59  81 S14       30.06S
WHITEMAN AFB   PTSUNNY   68  59  72 SW16      30.03S
OSAGE BEACH    MOSUNNY   70  57  64 S5        30.09S

$$
MOZ051-052-059>065-041500-
...EAST CENTRAL MISSOURI...

CITY           SKY/WX    TMP DP  RH WIND       PRES   REMARKS
ST LOUIS INTL  CLOUDY    71  60  68 S5        30.11R
SPIRIT OF STL  CLOUDY    69  60  73 CALM      30.11R
ST CHARLES     CLOUDY    71  60  68 S9        30.10R

$$
MOZ072>076-082>087-097>100-106>115-041500-
...SOUTH CENTRAL AND SOUTHEAST MISSOURI...

CITY           SKY/WX    TMP DP  RH WIND       PRES   REMARKS
CAPE GIRARDEAU PTSUNNY   68  57  68 S3        30.17R
FARMINGTON     CLOUDY    68  57  68 S5        30.18R
POPLAR BLUFF   MOSUNNY   70  58  65 S10       30.15S
WEST PLAINS    PTSUNNY   71  57  61 S9        30.15R

$$


USA.gov is the U.S. government's official web portal to all federal, state and local government web resources and services.